Regional Weather Roundup
Issued by NWS

Home | Current Version | Previous Version | Graphics & Text | Print | Product List | Glossary On
Versions: 1 2 3 4 5 6 7 8 9 10 11 12 13 14 15 16 17 18 19 20 21 22 23 24 25 26 27 28 29 30 31 32 33 34 35 36 37 38 39 40 41 42 43 44 45 46 47 48 49 50
000
ASUS43 KMPX 111410
RWRMN
WEATHER ROUNDUP FOR MINNESOTA
NATIONAL WEATHER SERVICE TWIN CITIES/CHANHASSEN MN
800 AM CST MON DEC 11 2017


NOTE: "FAIR" INDICATES FEW OR NO CLOUDS BELOW 12,000 FEET WITH NO
SIGNIFICANT WEATHER AND/OR OBSTRUCTIONS TO VISIBILITY. N/A MEANS
CURRENT SKY AND/OR WEATHER CONDITIONS ARE NOT AVAILABLE.

MNZ060>063-068>070-111500-
   Twin Cities Metro

CITY           SKY/WX    TMP DP  RH WIND       PRES   REMARKS
TWIN CITIES    LGT SNOW  31  30  96 W3        29.72S FOG
ST PAUL        LGT SNOW  29  28  96 S3        29.74F VSB 3/4
CRYSTAL        MIX PCPN  29  25  85 CALM      29.71S FOG
BLAINE         LGT SNOW  30  30 100 CALM      29.70S FOG
LAKEVILLE        N/A     30  30 100 CALM      29.71R
EDEN PRAIRIE   CLOUDY    32  29  88 CALM      29.70F
SOUTH ST PAUL  LGT SNOW  29  29  99 CALM      29.72R
LAKE ELMO      LGT SNOW  30  28  93 CALM      29.72S
$$
MNZ001>005-007-008-013>017-022>024-027-028-111500-
   Northwest Minnesota

CITY           SKY/WX    TMP DP  RH WIND       PRES   REMARKS
BEMIDJI        CLOUDY    27  24  89 N24G30    29.77R WCI  12
HALLOCK        CLOUDY    23  21  93 N24       29.99R FOG     WCI   7
ROSEAU         CLOUDY    25  19  80 N20       29.90R WCI  11
WARROAD        CLOUDY    21  18  86 NW16G26   29.88R FOG     WCI   7
THIEF RVR FALL CLOUDY    26  23  88 N23G31    29.90R WCI  11
CROOKSTON      CLOUDY    25  25 100 N35G43    29.92R FOG     WCI   7
FOSSTON        CLOUDY    25  23  93 N24G30    29.85R FOG     WCI   9
DETROIT LAKES  CLOUDY    32  32 100 NW25G36   29.79R WCI  19
MOORHEAD       CLOUDY    30  28  93 N35G40    29.87R WCI  14
PARK RAPIDS    CLOUDY    33  30  88 NW15      29.72R WCI  23
MAHNOMEN       CLOUDY    29  27  90 N28G35    29.81R WCI  15
$$
MNZ006-009>011-018-025>026-111500-
   North Central Minnesota

CITY           SKY/WX    TMP DP  RH WIND       PRES   REMARKS
BAUDETTE       CLOUDY    21  18  88 N20G26    29.81R WCI   6
FLAG ISLAND    CLOUDY    21  18  86 N23G30    29.87R WCI   5
INTL FALLS     CLOUDY    20  15  81 N7        29.77R WCI  11
WASKISH        CLOUDY    23  21  93 N9G20     29.80R WCI  13
GRAND RAPIDS   LGT SNOW  24  22  91 CALM      29.71S FOG
ORR            CLOUDY    19  16  86 CALM      29.70R
COOK           CLOUDY    19  18  93 CALM      29.72R
WALKER         FLURRIES  31  28  88 NW17G23   29.72R WCI  19
$$
MNZ012-019>021-037-111500-
   Northeast Minnesota

CITY           SKY/WX    TMP DP  RH WIND       PRES   REMARKS
DULUTH         LGT SNOW  21  20  96 CALM      29.67F VSB 3/4
ELY            FLURRIES  18  18 100 CALM      29.70S
HIBBING        LGT SNOW  19  18  95 N3        29.70R FOG
EVELETH        LGT SNOW  19  16  86 CALM      29.70R
DULUTH HARBOR  CLOUDY    23  21  93 CALM      29.74R
TWO HARBORS    MIX PCPN  25  19  80 CALM      29.69S
G MARAIS ARPRT LGT SNOW  16  12  86 CALM      29.67F
$$
MNZ029>031-032-039>041-046>048-054>057-064-111500-
   West Central Minnesota

CITY           SKY/WX    TMP DP  RH WIND       PRES   REMARKS
FERGUS FALLS   CLOUDY    34  32  93 N28G37    29.82R WCI  20
MORRIS         CLOUDY    37  34  87 NW22G28   29.78R
ALEXANDRIA     CLOUDY    34  31  88 NW16      29.75R WCI  24
ELBOW LAKE     CLOUDY    33  32  94 NW17G24   29.79R FOG     WCI  23
WADENA         CLOUDY    32  30  93 NW10      29.73R WCI  24
GLENWOOD       CLEAR     32  30  93 NW13      29.74R WCI  22
BENSON         CLOUDY    37  32  81 N18G25    29.77R
ORTONVILLE     CLOUDY    37  32  81 NW23G33   29.81R
MADISON        CLOUDY    41  36  81 NW20G25   29.80R
WILLMAR        FAIR      36  32  87 NW15G21   29.75R
$$
MNZ033>034-036-042>043-049>051-058-059-111500-
   Central Minnesota

CITY           SKY/WX    TMP DP  RH WIND       PRES   REMARKS
ST CLOUD       CLOUDY    29  28  96 W3        29.71R
SAUK CENTRE    PTSUNNY   28  26  92 W6        29.72R WCI  22
PAYNESVILLE    CLOUDY    32  30  92 NW13      29.73R WCI  22
AITKIN         CLOUDY    25  23  93 CALM      29.69R
PINE RIVER     CLOUDY    27  27 100 NW5       29.75R WCI  21
BRAINERD       CLOUDY    29  26  89 W3        29.71R FOG
STAPLES        CLOUDY    32  30  93 NW10      29.72R WCI  24
LONG PRAIRIE   CLOUDY    30  28  93 W9        29.72R WCI  22
LITTLE FALLS   CLOUDY    30  28  93 CALM      29.72R
LITCHFIELD     CLOUDY    34  30  86 NW10      29.72R WCI  26
BUFFALO        CLOUDY    30  28  92 CALM      29.72S
MAPLE LAKE     CLOUDY    32  30  94 CALM      29.72R
HUTCHINSON     PTCLDY    32  29  91 W7        29.72R WCI  25
$$
MNZ037-044-045-052-053-111500-
   East Central Minnesota

CITY           SKY/WX    TMP DP  RH WIND       PRES   REMARKS
PRINCETON      CLOUDY    30  28  93 CALM      29.71S FOG
MORA           LGT SNOW  27  27 100 CALM      29.72S
CAMBRIDGE      LGT SNOW  28  27  93 CALM      29.71F
RUSH CITY      LGT SNOW  26  24  94 CALM      29.72F
MOOSE LAKE     CLOUDY    25  23  93 SW5       29.68S FOG     WCI  19
HINCKLEY       LGT SNOW  27  27 100 CALM      29.72R
CLOQUET        CLOUDY    21  19  93 CALM      29.68F
MCGREGOR       CLOUDY    27  27 100 CALM      29.70S
$$
MNZ071>073-080-081-089-090-097-098-111500-
   Southwest Minnesota

CITY           SKY/WX    TMP DP  RH WIND       PRES   REMARKS
MONTEVIDEO     CLOUDY    37  34  87 N17G23    29.77R
GRANITE FALLS  CLOUDY    38  36  90 W14       29.78S
CANBY          CLOUDY    39  34  82 W17G23    29.81R
MARSHALL       CLOUDY    37  33  85 NW23      29.78R
REDWOOD FALLS  CLOUDY    39  31  72 NW17G26   29.74R
OLIVIA         CLOUDY    36  32  87 NW17G23   29.73R
PIPESTONE      LGT RAIN  36  30  80 NW17G24   29.80R
WINDOM         DRIZZLE   36  25  64 NW21G31   29.75R
WORTHINGTON    CLOUDY    35  31  85 W22       29.79R WCI  23
JACKSON        CLOUDY    36  30  80 MISG      29.75R
TRACY          CLOUDY    37  33  87 NW16G22   29.77R
$$
MNZ065>067-074>077-082>085-091>093-111500-
   South Central Minnesota

CITY           SKY/WX    TMP DP  RH WIND       PRES   REMARKS
MANKATO        CLOUDY    32  29  88 SW6       29.72F WCI  26
NEW ULM        CLOUDY    36  27  69 NW15G22   29.72R
ST JAMES       CLOUDY    37  28  70 W20G26    29.74R
FAIRMONT       CLOUDY    36  27  69 NW14      29.73S
GLENCOE        CLOUDY    32  32 100 CALM      29.70S
FARIBAULT      LGT RAIN  32  30  93 CALM      29.72S
WASECA         FLURRIES  32  30  93 SW3       29.73F
ALBERT LEA     FLURRIES  30  27  86 CALM      29.71F
$$
MNZ078>079-086>088-094>096-111500-
   Southeast Minnesota

CITY           SKY/WX    TMP DP  RH WIND       PRES   REMARKS
ROCHESTER      CLOUDY    29  25  85 SW9       29.72S WCI  20
RED WING       LGT SNOW  30  23  74 SE3       29.73S
STANTON        LGT RAIN  32  30  92 S5        29.70F WCI  28
DODGE CENTER   LGT SNOW  28  27  93 SW10      29.72R WCI  19
WINONA         CLOUDY    30  27  86 SE6       29.75F WCI  24
AUSTIN         LGT SNOW  28  25  86 CALM      29.73R
PRESTON        CLOUDY    28  23  82 S10       29.71F WCI  18
$$
ABBREVIATIONS USED IN REMARKS
   TC - TEMPERATURES IN CELSIUS
  WCI - WIND CHILL INDEX
   HX - HEAT INDEX
  VSB - VISIBILITY
$$



USA.gov is the U.S. government's official web portal to all federal, state and local government web resources and services.